Regional Weather Roundup
Issued by NWS

Home | Current Version | Previous Version | Graphics & Text | Print | Product List | Glossary On
Versions: 1 2 3 4 5 6 7 8 9 10 11 12 13 14 15 16 17 18 19 20 21 22 23 24 25 26 27 28 29 30 31 32 33 34 35 36 37 38 39 40 41 42 43 44 45 46 47 48 49 50
000
ASUS43 KOAX 250502
RWRNE

WEATHER ROUNDUP FOR NEBRASKA
NATIONAL WEATHER SERVICE OMAHA NE
1200 AM CDT WED APR 25 2018

NOTES: SATELLITE DATA IS BEING USED TO AUGMENT CLOUD COVER ABOVE
       12000 FEET.
       "FAIR" INDICATES FEW OR NO CLOUDS BELOW 12,000 FEET WITH NO
       SIGNIFICANT WEATHER AND/OR OBSTRUCTIONS TO VISIBILITY.


NEZ001>004-019>022-054>056-250600-
NEBRASKA PANHANDLE

CITY           SKY/WX    TMP DP  RH WIND       PRES   REMARKS
SCOTTSBLUFF    PTCLDY    30  28  92 CALM      30.43F
ALLIANCE       CLOUDY    28  27  96 W6        30.41F WCI  22
CHADRON        PTCLDY    29  27  92 SW8       30.43S WCI  21
GORDON         CLOUDY    36  31  84 W5        30.40S WCI  32
KIMBALL        CLOUDY    35  30  83 CALM      30.43S
SIDNEY         CLOUDY    33  29  85 N7        30.42F WCI  27
$$

NEZ057>060-069>072-079>082-250600-
SOUTHWEST NEBRASKA

CITY           SKY/WX    TMP DP  RH WIND       PRES   REMARKS
NORTH PLATTE   LGT RAIN  37  33  85 N12       30.40S WCI  29
IMPERIAL       CLOUDY    37  32  82 NW14      30.41F WCI  28
LEXINGTON      CLOUDY    39  35  84 N16       30.35F WCI  31
MCCOOK         CLOUDY    39  34  82 NW13      30.38R WCI  31
OGALLALA       CLOUDY    38  32  78 N9        30.42F WCI  32
$$

NEZ005>010-023>029-035>040-094-250600-
NORTH CENTRAL NEBRASKA

CITY           SKY/WX    TMP DP  RH WIND       PRES   REMARKS
VALENTINE      CLOUDY    38  34  85 NW7       30.38S WCI  33
AINSWORTH      CLOUDY    37  36  97 NW7       30.37S WCI  31
BROKEN BOW     CLOUDY    38  34  85 N16       30.34S WCI  29
O`NEILL        CLOUDY    42  40  93 NW9       30.35S
ORD            CLOUDY    40  38  93 N14       30.32S WCI  32
THEDFORD       MOCLDY    35  34  96 NW3       30.39S
$$

NEZ041-046>049-061>064-073>077-083>087-250600-
SOUTH CENTRAL NEBRASKA

CITY           SKY/WX    TMP DP  RH WIND       PRES   REMARKS
GRAND ISLAND   CLOUDY    43  40  89 N18       30.30R
AURORA         CLOUDY    43  41  94 N20G25    30.28R
HASTINGS       CLOUDY    42  41  96 N21G29    30.28F
HEBRON         CLOUDY    47  45  93 N13G20    30.24S
HOLDREGE       CLOUDY    39  38  94 N15G21    30.32S WCI  31
KEARNEY        CLOUDY    41  38  89 N17       30.32F
YORK             N/A     45  45 100 N16G25    30.27R
$$

NEZ011>018-030>034-042>045-250600-
NORTHEAST NEBRASKA

CITY           SKY/WX    TMP DP  RH WIND       PRES   REMARKS
NORFOLK        LGT RAIN  42  41  96 N14       30.28F
ALBION         LGT RAIN  42  40  93 N13       30.30S
BLAIR          CLOUDY    48  46  93 N16       30.21F
COLUMBUS       LGT RAIN  43  41  93 N18       30.28S
FREMONT        CLOUDY    48  46  92 N12G17    30.25S
TEKAMAH        LGT RAIN  46  44  93 N18       30.25R
WAYNE          LGT RAIN  43  42  97 N13       30.29S
$$

NEZ050>053-065>068-078-088>093-250600-
SOUTHEAST NEBRASKA

CITY           SKY/WX    TMP DP  RH WIND       PRES   REMARKS
LINCOLN        LGT RAIN  49  47  93 N16       30.24R FOG
OMAHA EPPLEY   CLOUDY    50  46  86 N12       30.22R
BEATRICE       CLOUDY    51  50  95 NW9       30.22R
FALLS CITY     CLOUDY    54  48  80 N8        30.16R
NEBRASKA CITY  LGT RAIN  52  51  98 NE10      30.19S
PLATTSMOUTH    CLOUDY    50  46  84 N9        30.19F
$$

NEZ044-045-051>053-067-250600-
OMAHA AREA

CITY           SKY/WX    TMP DP  RH WIND       PRES   REMARKS
OMAHA EPPLEY   CLOUDY    50  46  86 N12       30.22R
BLAIR          CLOUDY    48  46  93 N16       30.21F
FREMONT        CLOUDY    48  46  92 N12G17    30.25S
MILLARD        CLOUDY    51  47  83 N7        30.22S
OFFUTT AFB     CLOUDY    51  45  81 N9        30.20R
PLATTSMOUTH    CLOUDY    50  46  84 N9        30.19F
WAHOO          DRIZZLE   49  46  90 N13       30.24R
$$




USA.gov is the U.S. government's official web portal to all federal, state and local government web resources and services.